Location: Borz?cin
(51.1714°N, 19.6030°E)
Time: 21:11:35
(UTC+00:00)

Resurs 01 Rocket - Pass Details

Date: 19 May 2025
Orbit: 627 x 637 km, 97.7° (Epoch: 16 June)

Event Time Altitude Azimuth Distance (km) Brightness Sun altitude
Rises 19:11:27 0° 207° (SSW) 2,915 4.9 -5.7°
Reaches altitude 10° 19:14:15 10° 226° (SW) 2,011 4.2 -6.0°
Maximum altitude 19:17:18 18° 270° (W) 1,541 4.3 -6.4°
Drops below altitude 10° 19:20:21 10° 315° (NW) 2,019 6.0 -6.7°
Sets 19:23:11 0° 334° (NNW) 2,931 6.6 -7.1°
